Time,TemperatureF,DewpointF,PressureIn,WindDirection,WindDirectionDegrees,WindSpeedMPH,WindSpeedGustMPH,Humidity,HourlyPrecipIn,Conditions,Clouds,dailyrainin,SolarRadiationWatts/m^2,SoftwareType,DateUTC
2013-06-10 00:02:00,67.0,67.0,-100.00,SE,139,2.0,5.0,100,0.14,,,0.79,0.000000,,2013-06-10 05:02:00,
2013-06-10 00:12:00,67.0,67.0,-100.00,SE,139,2.0,5.0,100,0.14,,,0.79,0.000000,,2013-06-10 05:12:00,
2013-06-10 00:32:00,67.0,67.0,-100.00,SE,124,1.0,9.0,100,0.05,,,0.84,0.000000,,2013-06-10 05:32:00,
2013-06-10 00:42:00,67.0,67.0,-100.00,SE,124,1.0,9.0,100,0.05,,,0.84,0.000000,,2013-06-10 05:42:00,
2013-06-10 00:52:00,67.0,67.0,-100.00,SE,124,1.0,9.0,100,0.05,,,0.84,0.000000,,2013-06-10 05:52:00,
2013-06-10 01:02:00,67.0,67.0,-100.00,SE,124,1.0,9.0,100,0.05,,,0.84,0.000000,,2013-06-10 06:02:00,
2013-06-10 01:12:00,67.0,67.0,-100.00,SE,124,1.0,9.0,100,0.05,,,0.84,0.000000,,2013-06-10 06:12:00,
2013-06-10 01:32:00,66.0,66.0,-100.00,South,189,1.0,3.0,100,0.00,,,0.84,0.000000,,2013-06-10 06:32:00,
2013-06-10 01:42:00,66.0,66.0,-100.00,South,189,1.0,3.0,100,0.00,,,0.84,0.000000,,2013-06-10 06:42:00,
2013-06-10 01:53:00,66.0,66.0,-100.00,South,189,1.0,3.0,100,0.00,,,0.84,0.000000,,2013-06-10 06:53:00,
2013-06-10 02:02:00,66.0,66.0,-100.00,South,189,1.0,3.0,100,0.00,,,0.84,0.000000,,2013-06-10 07:02:00,
2013-06-10 02:12:00,66.0,66.0,-100.00,South,189,1.0,3.0,100,0.00,,,0.84,0.000000,,2013-06-10 07:12:00,
2013-06-10 02:32:00,66.0,66.0,-100.00,SW,235,1.0,4.0,100,0.00,,,0.84,0.000000,,2013-06-10 07:32:00,
2013-06-10 02:42:00,66.0,66.0,-100.00,SW,235,1.0,4.0,100,0.00,,,0.84,0.000000,,2013-06-10 07:42:00,
2013-06-10 02:52:00,66.0,66.0,-100.00,SW,235,1.0,4.0,100,0.00,,,0.84,0.000000,,2013-06-10 07:52:00,
2013-06-10 03:02:00,66.0,66.0,-100.00,SW,235,1.0,4.0,100,0.00,,,0.84,0.000000,,2013-06-10 08:02:00,
2013-06-10 03:12:00,66.0,66.0,-100.00,SW,235,1.0,4.0,100,0.00,,,0.84,0.000000,,2013-06-10 08:12:00,
2013-06-10 03:32:00,65.0,65.0,-100.00,SW,227,1.0,2.0,100,0.00,,,0.84,0.000000,,2013-06-10 08:32:00,
2013-06-10 03:42:00,65.0,65.0,-100.00,SW,227,1.0,2.0,100,0.00,,,0.84,0.000000,,2013-06-10 08:42:00,
2013-06-10 03:52:00,65.0,65.0,-100.00,SW,227,1.0,2.0,100,0.00,,,0.84,0.000000,,2013-06-10 08:52:00,
2013-06-10 04:02:00,65.0,65.0,-100.00,SW,227,1.0,2.0,100,0.00,,,0.84,0.000000,,2013-06-10 09:02:00,
2013-06-10 04:12:00,65.0,65.0,-100.00,SW,227,1.0,2.0,100,0.00,,,0.84,0.000000,,2013-06-10 09:12:00,
2013-06-10 04:43:00,66.0,66.0,-100.00,SW,230,4.0,8.0,100,0.01,,,0.85,0.000000,,2013-06-10 09:43:00,
2013-06-10 04:53:00,66.0,66.0,-100.00,SW,230,4.0,8.0,100,0.01,,,0.85,0.000000,,2013-06-10 09:53:00,
2013-06-10 05:03:00,66.0,66.0,-100.00,SW,230,4.0,8.0,100,0.01,,,0.85,0.000000,,2013-06-10 10:03:00,
2013-06-10 05:12:00,66.0,66.0,-100.00,SW,230,4.0,8.0,100,0.01,,,0.85,0.000000,,2013-06-10 10:12:00,
2013-06-10 05:33:00,67.0,67.0,-100.00,SW,234,4.0,8.0,100,0.00,,,0.85,0.000000,,2013-06-10 10:33:00,
2013-06-10 05:42:00,67.0,67.0,-100.00,SW,234,4.0,8.0,100,0.00,,,0.85,0.000000,,2013-06-10 10:42:00,
2013-06-10 05:52:00,67.0,67.0,-100.00,SW,234,4.0,8.0,100,0.00,,,0.85,0.000000,,2013-06-10 10:52:00,
2013-06-10 06:03:00,67.0,67.0,-100.00,SW,234,4.0,8.0,100,0.00,,,0.85,0.000000,,2013-06-10 11:03:00,
2013-06-10 06:12:00,67.0,67.0,-100.00,SW,234,4.0,8.0,100,0.00,,,0.85,0.000000,,2013-06-10 11:12:00,
2013-06-10 08:42:00,70.0,67.0,-100.00,SW,224,4.0,12.0,91,-99.99,,,0.85,170.000000,,2013-06-10 13:42:00,
2013-06-10 08:52:00,70.0,67.0,-100.00,SW,224,4.0,12.0,91,-99.99,,,0.85,170.000000,,2013-06-10 13:52:00,
2013-06-10 09:02:00,70.0,67.0,-100.00,SW,224,4.0,12.0,91,-99.99,,,0.85,170.000000,,2013-06-10 14:02:00,
2013-06-10 09:12:00,70.0,67.0,-100.00,SW,224,4.0,12.0,91,-99.99,,,0.85,170.000000,,2013-06-10 14:12:00,
2013-06-10 09:42:00,71.0,67.0,-100.00,WSW,239,5.0,12.0,87,0.00,,,0.74,282.000000,,2013-06-10 14:42:00,
2013-06-10 09:52:00,71.0,67.0,-100.00,WSW,239,5.0,12.0,87,0.00,,,0.74,282.000000,,2013-06-10 14:52:00,
2013-06-10 10:02:00,71.0,67.0,-100.00,WSW,239,5.0,12.0,87,0.00,,,0.74,282.000000,,2013-06-10 15:02:00,
2013-06-10 10:12:00,71.0,67.0,-100.00,WSW,239,5.0,12.0,87,0.00,,,0.74,282.000000,,2013-06-10 15:12:00,
2013-06-10 10:33:00,76.0,69.0,-100.00,SSW,211,3.0,11.0,78,0.00,,,0.74,374.000000,,2013-06-10 15:33:00,
2013-06-10 10:43:00,76.0,69.0,-100.00,SSW,211,3.0,11.0,78,0.00,,,0.74,374.000000,,2013-06-10 15:43:00,
2013-06-10 10:53:00,76.0,69.0,-100.00,SSW,211,3.0,11.0,78,0.00,,,0.74,374.000000,,2013-06-10 15:53:00,
2013-06-10 11:03:00,76.0,69.0,-100.00,SSW,211,3.0,11.0,78,0.00,,,0.74,374.000000,,2013-06-10 16:03:00,
2013-06-10 11:12:00,76.0,69.0,-100.00,SSW,211,3.0,11.0,78,0.00,,,0.74,374.000000,,2013-06-10 16:12:00,
2013-06-10 11:33:00,72.0,70.0,-100.00,East,84,1.0,8.0,92,0.02,,,0.76,153.000000,,2013-06-10 16:33:00,
2013-06-10 11:43:00,72.0,70.0,-100.00,East,84,1.0,8.0,92,0.02,,,0.76,153.000000,,2013-06-10 16:43:00,
2013-06-10 11:53:00,72.0,70.0,-100.00,East,84,1.0,8.0,92,0.02,,,0.76,153.000000,,2013-06-10 16:53:00,
2013-06-10 12:03:00,72.0,70.0,-100.00,East,84,1.0,8.0,92,0.02,,,0.76,153.000000,,2013-06-10 17:03:00,
2013-06-10 12:14:00,72.0,70.0,-100.00,East,84,1.0,8.0,92,0.02,,,0.76,153.000000,,2013-06-10 17:14:00,
2013-06-10 12:38:00,74.0,72.0,-100.00,South,171,2.0,5.0,93,0.00,,,0.76,213.000000,,2013-06-10 17:38:00,
2013-06-10 12:48:00,74.0,72.0,-100.00,South,171,2.0,5.0,93,0.00,,,0.76,213.000000,,2013-06-10 17:48:00,
2013-06-10 12:58:00,74.0,72.0,-100.00,South,171,2.0,5.0,93,0.00,,,0.76,213.000000,,2013-06-10 17:58:00,
2013-06-10 13:07:00,74.0,72.0,-100.00,South,171,2.0,5.0,93,0.00,,,0.76,213.000000,,2013-06-10 18:07:00,
2013-06-10 13:14:00,74.0,72.0,-100.00,South,171,2.0,5.0,93,0.00,,,0.76,213.000000,,2013-06-10 18:14:00,
2013-06-10 13:35:00,80.0,73.0,-100.00,SW,228,5.0,12.0,78,0.00,,,0.76,539.000000,,2013-06-10 18:35:00,
2013-06-10 13:48:00,80.0,73.0,-100.00,SW,228,5.0,12.0,78,0.00,,,0.76,539.000000,,2013-06-10 18:48:00,
2013-06-10 13:55:00,80.0,73.0,-100.00,SW,228,5.0,12.0,78,0.00,,,0.76,539.000000,,2013-06-10 18:55:00,
2013-06-10 14:03:00,80.0,73.0,-100.00,SW,228,5.0,12.0,78,0.00,,,0.76,539.000000,,2013-06-10 19:03:00,
2013-06-10 14:13:00,80.0,73.0,-100.00,SW,228,5.0,12.0,78,0.00,,,0.76,539.000000,,2013-06-10 19:13:00,
2013-06-10 14:43:00,83.0,68.0,-100.00,WSW,252,9.0,20.0,60,0.00,,,0.76,640.000000,,2013-06-10 19:43:00,
2013-06-10 14:53:00,83.0,68.0,-100.00,WSW,252,9.0,20.0,60,0.00,,,0.76,640.000000,,2013-06-10 19:53:00,
2013-06-10 15:03:00,83.0,68.0,-100.00,WSW,252,9.0,20.0,60,0.00,,,0.76,640.000000,,2013-06-10 20:03:00,
2013-06-10 15:12:00,83.0,68.0,-100.00,WSW,252,9.0,20.0,60,0.00,,,0.76,640.000000,,2013-06-10 20:12:00,
2013-06-10 15:32:00,84.0,67.0,-100.00,West,277,8.0,23.0,57,0.00,,,0.76,588.000000,,2013-06-10 20:32:00,
2013-06-10 15:43:00,84.0,67.0,-100.00,West,277,8.0,23.0,57,0.00,,,0.76,588.000000,,2013-06-10 20:43:00,
2013-06-10 15:53:00,84.0,67.0,-100.00,West,277,8.0,23.0,57,0.00,,,0.76,588.000000,,2013-06-10 20:53:00,
2013-06-10 16:02:00,84.0,67.0,-100.00,West,277,8.0,23.0,57,0.00,,,0.76,588.000000,,2013-06-10 21:02:00,
2013-06-10 16:12:00,84.0,67.0,-100.00,West,277,8.0,23.0,57,0.00,,,0.76,588.000000,,2013-06-10 21:12:00,
2013-06-10 16:34:00,83.0,62.0,-100.00,West,264,10.0,19.0,50,0.00,,,0.76,621.000000,,2013-06-10 21:34:00,
2013-06-10 16:43:00,83.0,62.0,-100.00,West,264,10.0,19.0,50,0.00,,,0.76,621.000000,,2013-06-10 21:43:00,
2013-06-10 16:53:00,83.0,62.0,-100.00,West,264,10.0,19.0,50,0.00,,,0.76,621.000000,,2013-06-10 21:53:00,
2013-06-10 17:03:00,83.0,62.0,-100.00,West,264,10.0,19.0,50,0.00,,,0.76,621.000000,,2013-06-10 22:03:00,
2013-06-10 17:13:00,83.0,62.0,-100.00,West,264,10.0,19.0,50,0.00,,,0.76,621.000000,,2013-06-10 22:13:00,
2013-06-10 17:42:00,83.0,65.0,-100.00,West,272,7.0,19.0,54,0.00,,,0.76,479.000000,,2013-06-10 22:42:00,
2013-06-10 17:52:00,83.0,65.0,-100.00,West,272,7.0,19.0,54,0.00,,,0.76,479.000000,,2013-06-10 22:52:00,
2013-06-10 18:02:00,83.0,65.0,-100.00,West,272,7.0,19.0,54,0.00,,,0.76,479.000000,,2013-06-10 23:02:00,
2013-06-10 18:12:00,83.0,65.0,-100.00,West,272,7.0,19.0,54,0.00,,,0.76,479.000000,,2013-06-10 23:12:00,
2013-06-10 18:32:00,83.0,66.0,-100.00,West,268,5.0,14.0,56,0.00,,,0.76,328.000000,,2013-06-10 23:32:00,
2013-06-10 18:42:00,83.0,66.0,-100.00,West,268,5.0,14.0,56,0.00,,,0.76,328.000000,,2013-06-10 23:42:00,
2013-06-10 18:52:00,83.0,66.0,-100.00,West,268,5.0,14.0,56,0.00,,,0.76,328.000000,,2013-06-10 23:52:00,
2013-06-10 19:02:00,83.0,66.0,-100.00,West,268,5.0,14.0,56,0.00,,,0.76,328.000000,,2013-06-11 00:02:00,
2013-06-10 19:12:00,83.0,66.0,-100.00,West,268,5.0,14.0,56,0.00,,,0.76,328.000000,,2013-06-11 00:12:00,
2013-06-10 19:43:00,81.0,66.0,-100.00,NNW,328,4.0,8.0,60,0.00,,,0.76,161.000000,,2013-06-11 00:43:00,
2013-06-10 19:52:00,81.0,66.0,-100.00,NNW,328,4.0,8.0,60,0.00,,,0.76,161.000000,,2013-06-11 00:52:00,
2013-06-10 20:02:00,81.0,66.0,-100.00,NNW,328,4.0,8.0,60,0.00,,,0.76,161.000000,,2013-06-11 01:02:00,
2013-06-10 20:12:00,81.0,66.0,-100.00,NNW,328,4.0,8.0,60,0.00,,,0.76,161.000000,,2013-06-11 01:12:00,
2013-06-10 20:33:00,73.0,66.0,-100.00,North,357,3.0,6.0,79,0.00,,,-99.99,23.000000,,2013-06-11 01:33:00,
2013-06-10 20:42:00,73.0,66.0,-100.00,North,357,3.0,6.0,79,0.00,,,-99.99,23.000000,,2013-06-11 01:42:00,
2013-06-10 20:53:00,73.0,66.0,-100.00,North,357,3.0,6.0,79,0.00,,,-99.99,23.000000,,2013-06-11 01:53:00,
2013-06-10 21:02:00,73.0,66.0,-100.00,North,357,3.0,6.0,79,0.00,,,-99.99,23.000000,,2013-06-11 02:02:00,
2013-06-10 21:12:00,73.0,66.0,-100.00,North,357,3.0,6.0,79,0.00,,,-99.99,23.000000,,2013-06-11 02:12:00,
2013-06-10 21:32:00,68.0,67.0,-100.00,SSW,193,1.0,4.0,96,0.00,,,0.46,0.000000,,2013-06-11 02:32:00,
2013-06-10 21:43:00,68.0,67.0,-100.00,SSW,193,1.0,4.0,96,0.00,,,0.46,0.000000,,2013-06-11 02:43:00,
2013-06-10 21:52:00,68.0,67.0,-100.00,SSW,193,1.0,4.0,96,0.00,,,0.46,0.000000,,2013-06-11 02:52:00,
2013-06-10 22:02:00,68.0,67.0,-100.00,SSW,193,1.0,4.0,96,0.00,,,0.46,0.000000,,2013-06-11 03:02:00,
2013-06-10 22:13:00,68.0,67.0,-100.00,SSW,193,1.0,4.0,96,0.00,,,0.46,0.000000,,2013-06-11 03:13:00,
2013-06-10 22:33:00,66.0,66.0,-100.00,SSW,197,2.0,2.0,100,0.00,,,0.22,0.000000,,2013-06-11 03:33:00,
2013-06-10 22:43:00,66.0,66.0,-100.00,SSW,197,2.0,2.0,100,0.00,,,0.22,0.000000,,2013-06-11 03:43:00,
2013-06-10 22:53:00,66.0,66.0,-100.00,SSW,197,2.0,2.0,100,0.00,,,0.22,0.000000,,2013-06-11 03:53:00,
2013-06-10 23:03:00,66.0,66.0,-100.00,SSW,197,2.0,2.0,100,0.00,,,0.22,0.000000,,2013-06-11 04:03:00,
2013-06-10 23:12:00,66.0,66.0,-100.00,SSW,197,2.0,2.0,100,0.00,,,0.22,0.000000,,2013-06-11 04:12:00,
2013-06-10 23:33:00,65.0,65.0,-100.00,WNW,300,0.0,3.0,100,0.00,,,0.08,0.000000,,2013-06-11 04:33:00,
2013-06-10 23:43:00,65.0,65.0,-100.00,WNW,300,0.0,3.0,100,0.00,,,0.08,0.000000,,2013-06-11 04:43:00,
2013-06-10 23:53:00,65.0,65.0,-100.00,WNW,300,0.0,3.0,100,0.00,,,0.08,0.000000,,2013-06-11 04:53:00,